Dewpoint
38 41 42 45 45 44 44 45 45 46 45 43 41 40 39 38 37 35 34 31 31 33 34 35 35 37 37 36 37 42 42 40 43 45 45 45 44 44 43 43 43 42 42
36 41 42 44 46 44 44 45 45 45 44 43 42 41 40 38 37 36 33 33 33 34 34 34 34 35 36 36 36 36 37 37 39 40 43 42 43 43 42 41 40 40 41
37 41 42 44 46 44 44 45 45 45 44 43 43 42 39 37 35 35 34 33 33 34 35 34 34 34 37 36 36 37 37 36 36 38 39 35 38 40 41 39 38 37 37
36 40 42 44 46 45 45 45 46 45 44 43 42 39 36 34 35 35 35 34 34 34 36 35 34 34 36 35 34 36 36 37 35 36 38 37 36 35 37 39 36 36 35
37 38 42 43 46 46 45 45 46 45 44 43 42 39 38 37 36 35 33 32 33 34 34 34 34 34 36 35 35 35 34 35 35 35 34 34 35 33 33 36 35 35 36
36 39 41 43 45 46 46 45 45 45 44 43 42 40 39 38 35 34 33 32 33 33 33 33 33 33 34 34 34 34 33 33 33 33 33 34 33 32 30 29 30 31 33
38 38 40 41 44 45 45 45 45 44 43 43 42 42 41 38 35 34 34 32 32 32 32 32 32 32 32 32 32 32 31 31 31 31 30 32 33 34 33 31 30 29 31
38 39 40 41 42 44 45 44 44 44 43 43 43 43 43 40 38 36 35 34 34 34 33 32 31 31 30 30 30 30 30 31 31 28 29 30 31 31 32 32 31 28 29
36 37 37 40 41 43 43 43 43 44 43 43 43 43 43 42 39 36 34 33 33 32 31 30 29 29 29 29 29 28 26 28 28 29 27 28 29 30 31 31 32 31 27
34 34 35 37 38 40 41 42 42 42 42 43 43 42 42 42 40 37 35 32 32 30 29 27 27 27 27 27 27 27 26 26 27 28 26 26 27 28 28 30 30 30 29
33 33 32 33 33 35 36 38 38 37 37 36 35 34 33 33 33 33 32 29 28 27 27 26 26 26 26 25 26 28 27 28 27 27 26 25 25 25 25 27 27 27 27
31 30 31 31 30 30 31 31 31 30 30 29 27 27 28 28 28 28 27 27 25 26 25 26 26 26 30 31 30 30 30 30 29 28 27 25 24 25 25 26 26 26 26
30 28 26 25 26 27 28 29 31 32 33 33 32 33 33 33 33 33 33 32 32 33 32 32 31 32 32 32 33 32 31 31 29 28 28 28 28 25 27 27 26 27 25
22 22 22 23 24 25 25 26 27 31 32 33 33 32 32 33 33 33 33 33 33 33 33 34 34 33 33 33 32 32 31 31 30 30 29 28 27 24 24 24 25 25 25
20 20 21 21 23 23 24 25 26 27 28 28 28 28 30 31 32 32 32 32 32 33 33 33 33 33 33 33 32 31 30 29 28 28 26 25 25 25 24 22 23 24 25
16 18 18 18 18 19 21 22 24 25 27 26 25 26 26 26 27 28 29 30 31 32 33 33 32 31 33 34 35 32 30 29 26 25 25 25 26 27 28 29 29 28 24
14 16 17 17 17 18 19 20 21 24 23 22 22 23 24 23 24 25 25 25 25 26 27 28 29 29 30 34 34 35 32 29 26 27 26 26 25 27 25 27 28 28 30
13 15 16 17 18 18 18 19 20 21 21 20 20 20 21 21 22 22 23 23 23 22 21 18 18 19 21 25 25 25 23 22 22 23 24 25 24 25 24 23 23 22 22
15 15 16 17 18 17 17 18 18 18 19 19 19 19 19 18 19 19 18 12 9 10 9 8 9 9 10 15 18 19 17 16 16 16 16 19 22 24 24 22 22 22 23
15 15 15 16 16 16 17 16 15 16 16 19 18 15 9 9 9 8 7 7 6 4 4 4 5 7 7 11 14 15 14 13 12 11 11 18 18 22 22 19 19 19 20
12 11 11 12 13 12 14 12 6 3 5 8 8 1 -1 0 2 1 1 1 2 2 4 2 4 4 4 5 13 15 12 11 9 9 9 11 17 18 20 21 21 21 21
7 8 7 6 7 8 9 7 -0 -3 -2 -0 -2 -3 -3 -3 -4 -2 -1 -2 1 2 4 5 5 4 3 9 11 15 16 16 12 11 10 11 16 17 18 18 20 21 21
6 6 6 6 6 5 1 -3 -3 -2 -1 -1 -2 -2 -2 -3 -3 -2 -2 -1 2 4 5 4 5 5 2 2 10 13 16 17 14 14 16 18 18 19 18 19 21 21 19
3 4 3 4 1 -2 -3 -2 -2 -1 -1 -1 -1 -0 1 2 2 2 2 3 5 6 5 5 5 6 6 5 4 3 7 11 11 12 12 13 15 17 16 16 15 14 15
1 1 1 -3 -3 -2 -2 -2 -2 -1 -1 -0 1 3 2 3 4 4 5 5 7 8 6 7 8 9 8 7 10 10 9 10 11 13 13 13 12 13 13 14 13 14 13
-1 -4 -4 -4 -3 -3 -3 -3 -2 -2 -1 0 1 2 4 5 5 6 7 11 13 14 15 16 15 14 15 16 16 16 19 21 24 21 14 13 15 15 14 14 15 15 17
Lifted_Index
7 7 8 8 9 10 10 11 11 11 12 13 13 13 13 13 12 12 12 13 13 13 13 12 12 12 12 11 11 10 10 9 9 9 9 9 10 11 11 11 11 11 11
7 7 7 8 8 9 10 10 11 11 12 12 13 13 13 13 13 12 12 12 13 13 13 12 12 12 11 11 11 10 10 9 9 9 9 8 9 9 11 11 12 12 11
7 7 7 7 8 9 9 10 10 10 11 12 13 13 13 13 12 12 12 12 13 13 13 12 12 12 11 11 10 10 10 9 9 9 9 8 8 8 9 10 11 12 12
6 6 7 7 8 8 9 10 10 10 11 12 12 12 12 12 12 12 12 12 12 13 13 13 12 12 11 11 10 10 9 9 9 9 9 8 8 8 8 9 10 11 12
6 6 7 7 8 8 9 9 10 10 10 11 12 12 12 12 12 12 12 12 12 13 13 13 13 12 11 11 10 10 9 9 9 8 8 8 8 8 8 8 8 9 10
6 6 6 7 8 8 9 9 10 10 10 11 11 12 12 12 12 12 11 11 11 12 13 13 13 12 12 11 11 10 10 9 9 8 8 8 8 8 8 8 8 8 9
5 5 6 6 7 8 8 9 9 9 10 10 11 11 12 12 11 11 11 11 11 12 12 13 13 13 13 12 12 11 11 10 9 9 9 8 9 9 8 8 8 8 8
4 4 5 6 6 7 8 9 9 9 9 9 10 10 11 11 11 11 11 11 11 11 12 13 13 13 13 13 13 12 12 11 11 10 10 9 10 10 9 9 8 8 8
4 4 5 6 6 7 8 8 8 9 9 9 9 10 10 10 10 10 11 11 11 11 12 13 13 14 14 14 14 13 13 12 12 11 11 10 10 10 10 10 9 8 8
4 4 5 6 7 8 8 9 9 9 9 9 9 9 9 10 10 10 10 11 11 11 12 13 13 14 14 14 14 14 13 13 13 12 12 11 11 10 11 11 10 10 9
5 5 6 7 7 8 8 9 9 9 10 10 10 10 10 10 10 10 11 11 11 12 12 13 14 14 15 15 15 14 14 13 13 13 12 11 11 11 11 11 11 11 11
5 5 6 7 8 8 9 9 10 10 11 11 11 11 11 11 11 11 12 12 13 13 13 14 14 15 15 15 15 14 14 14 13 13 12 11 11 11 11 11 11 11 11
6 7 7 8 9 10 10 11 11 11 12 12 12 12 12 12 13 13 14 14 15 15 15 15 15 15 15 15 15 14 14 14 13 12 12 12 11 11 11 11 11 11 12
8 9 10 11 12 13 13 13 14 14 14 14 14 14 14 15 15 15 15 16 16 16 16 16 16 15 15 15 15 14 14 13 13 13 13 12 12 12 12 12 12 13 13
12 12 13 14 15 16 16 16 17 17 17 16 16 16 16 17 17 17 17 17 17 17 17 17 16 16 16 16 15 14 14 14 13 13 13 13 14 13 13 13 14 14 14
15 16 17 17 18 18 18 18 18 18 18 18 17 17 17 17 17 17 18 18 18 18 18 18 17 17 17 17 16 16 15 15 14 14 14 15 15 15 15 15 15 15 15
18 18 19 19 19 20 20 20 19 19 19 19 19 18 18 18 18 18 18 18 18 18 18 18 18 18 18 18 17 17 17 16 16 16 16 16 16 16 16 16 16 16 15
18 19 19 20 20 20 20 20 20 20 20 20 20 20 19 19 19 19 19 18 18 18 18 18 19 18 18 18 18 18 18 17 17 17 17 17 17 17 16 16 16 16 16
18 19 19 20 20 20 20 19 19 19 19 19 20 20 20 19 19 19 19 19 19 19 19 19 19 19 18 18 18 18 18 18 17 17 17 17 17 16 16 16 16 16 16
18 18 18 18 18 19 19 18 18 18 18 19 20 20 20 20 19 19 19 20 20 20 19 19 19 19 19 19 18 18 18 18 17 17 17 17 17 16 16 16 16 16 16
17 17 17 17 18 18 18 18 17 18 19 20 20 20 21 21 20 20 20 20 20 20 19 19 19 19 19 19 19 18 18 18 17 17 17 17 17 16 16 16 15 15 15
17 17 17 17 17 18 17 17 17 18 19 20 20 20 20 20 20 20 20 19 19 19 18 18 18 18 18 18 19 19 19 18 17 17 17 17 17 16 16 15 15 14 14
16 16 16 16 16 17 17 17 17 18 18 18 18 18 18 19 19 18 18 18 18 17 17 17 17 17 18 18 19 19 19 18 18 17 17 17 17 16 16 15 15 14 14
16 16 16 16 16 17 17 17 18 18 18 17 17 17 17 17 17 18 18 17 17 17 17 17 17 17 17 18 19 19 19 18 18 17 17 17 17 16 16 15 15 14 14
17 17 17 17 17 17 18 18 19 19 19 18 18 18 18 18 18 18 18 18 18 18 17 17 17 17 17 18 18 18 18 17 17 17 17 17 16 16 15 15 15 14 14
18 18 17 17 17 18 18 19 20 20 20 19 18 18 18 18 18 18 19 19 20 19 18 18 18 18 18 18 18 18 17 16 16 16 16 16 16 15 15 15 15 14 14